Tracking 19489 objects as of 22-Jan-2019
HD Live streaming from Space Station
objects crossing your sky now

MARISAT 3

Track MARISAT 3 now!
MARISAT 3 is classified as:


NORAD ID: 8882
Int'l Code: 1976-053A
Perigee: 36,524.3 km
Apogee: 37,606.8 km
Inclination: 13.6 °
Period: 1,501.6 minutes
Semi major axis: 43436 km
RCS: 3.2504 m2 (large)
Launch date: June 10, 1976
Source: United States (US)
Launch site: AIR FORCE EASTERN TEST RANGE (AFETR)
aabbcc
Your satellite tracking list
Your tracking list is empty




NASA's NSSDC Master Catalog

Two Line Element Set (TLE):
1  8882U 76053A   19022.10605031 -.00000202  00000-0  00000+0 0  9991
2  8882  13.5579 324.7930 0124614 267.5128 270.1464  0.95900306 95274
Source of the keplerian elements: AFSPC